Change the Weather History Date:

Saturday, June 28, 2014

  Actual Average Record
Temperature  
Mean Temperature 78 °F -  
Max Temperature 84 °F 91 °F 105 °F (1980)
Min Temperature 73 °F 68 °F 54 °F (1985)
Cooling Degree Days 14    
Growing Degree Days 28 (Base 50)    
Moisture  
Dew Point 73 °F    
Average Humidity 85    
Maximum Humidity 100    
Minimum Humidity 70    
Precipitation  
Precipitation 0.00 in - - ()
Sea Level Pressure  
Sea Level Pressure 29.88 in    
Wind  
Wind Speed 13 mph (SSE)    
Max Wind Speed 21 mph    
Max Gust Speed 26 mph    
Visibility 10 miles    
Events      
Averages and records for this station are not official NWS values.
T = Trace of Precipitation, MM = Missing Value Source: NWS Daily Summary

Daily Weather History Graph

Daily Weather History Graph

Search for Another Location

Airport or City:

Trip Planner

Search our weather history database for the weather conditions in past years. The results will help you decide how hot, cold, wet, or windy it might be!

Date:

Astronomy

Jun. 28, 2014 Rise Set
Actual Time 6:15 AM CDT 8:44 PM CDT
Civil Twilight 5:46 AM CDT 9:13 PM CDT
Nautical Twilight 5:09 AM CDT 9:50 PM CDT
Astronomical Twilight 4:29 AM CDT 10:30 PM CDT
Moon 7:35 AM CDT (6/28) 9:35 PM CDT (6/28)
Length of Visible Light 15h 27m
Length of Day
14h 28m
New Moon, 2% of the Moon is Illuminated
Jun 28
New Moon
Jul 5
First Quarter
Jul 12
Full
Jul 18
Last Quarter
Jul 26
New

Hourly Weather History & Observations

Time (CDT) Temp. Heat Index Dew Point Humidity Pressure Visibility Wind Dir Wind Speed Gust Speed Precip Events Conditions
12:15 AM 75.2 °F - 71.6 °F 89% 29.84 in 10.0 mi SSE 13.8 mph - N/A   Clear
12:35 AM 75.2 °F - 71.6 °F 89% 29.84 in 10.0 mi SSE 15.0 mph - N/A   Clear
12:55 AM 73.4 °F - 71.6 °F 94% 29.85 in 10.0 mi SSE 15.0 mph 20.7 mph N/A   Clear
1:15 AM 73.4 °F - 71.6 °F 94% 29.85 in 10.0 mi SSE 15.0 mph - N/A   Scattered Clouds
1:35 AM 73.4 °F - 71.6 °F 94% 29.85 in 10.0 mi SSE 16.1 mph 21.9 mph N/A   Scattered Clouds
1:55 AM 73.4 °F - 73.4 °F 100% 29.85 in 10.0 mi SSE 15.0 mph 20.7 mph N/A   Scattered Clouds
2:15 AM 75.2 °F - 73.4 °F 94% 29.86 in 10.0 mi SSE 11.5 mph 17.3 mph N/A   Mostly Cloudy
2:35 AM 75.2 °F - 73.4 °F 94% 29.87 in 10.0 mi SSE 12.7 mph 20.7 mph N/A   Mostly Cloudy
2:55 AM 75.2 °F - 73.4 °F 94% 29.86 in 10.0 mi SSE 13.8 mph - N/A   Mostly Cloudy
3:15 AM 75.2 °F - 73.4 °F 94% 29.86 in 10.0 mi SSE 16.1 mph 23.0 mph N/A   Scattered Clouds
3:35 AM 75.2 °F - 73.4 °F 94% 29.86 in 10.0 mi SSE 16.1 mph 24.2 mph N/A   Mostly Cloudy
3:55 AM 75.2 °F - 73.4 °F 94% 29.86 in 10.0 mi SSE 11.5 mph 18.4 mph N/A   Overcast
4:15 AM 73.4 °F - 73.4 °F 100% 29.86 in 10.0 mi SSE 10.4 mph - N/A   Mostly Cloudy
4:35 AM 75.2 °F - 73.4 °F 94% 29.88 in 10.0 mi South 5.8 mph - N/A   Overcast
4:55 AM 75.2 °F - 73.4 °F 94% 29.89 in 10.0 mi South 8.1 mph - N/A   Overcast
5:15 AM 75.2 °F - 73.4 °F 94% 29.90 in 10.0 mi South 12.7 mph - N/A   Overcast
5:35 AM 75.2 °F - 71.6 °F 89% 29.90 in 10.0 mi South 9.2 mph - N/A   Overcast
5:55 AM 75.2 °F - 71.6 °F 89% 29.88 in 10.0 mi SSE 11.5 mph - N/A   Overcast
6:15 AM 73.4 °F - 73.4 °F 100% 29.87 in 10.0 mi SSE 12.7 mph - N/A   Mostly Cloudy
6:35 AM 73.4 °F - 71.6 °F 94% 29.88 in 10.0 mi SSE 13.8 mph - N/A   Scattered Clouds
6:55 AM 73.4 °F - 73.4 °F 100% 29.88 in 10.0 mi SSE 12.7 mph - N/A   Mostly Cloudy
7:15 AM 73.4 °F - 73.4 °F 100% 29.88 in 10.0 mi SSE 15.0 mph - N/A   Scattered Clouds
7:35 AM 75.2 °F - 73.4 °F 94% 29.87 in 10.0 mi SSE 15.0 mph 19.6 mph N/A   Clear
7:55 AM 77.0 °F - 73.4 °F 89% 29.86 in 10.0 mi SSE 19.6 mph 26.5 mph N/A   Clear
8:15 AM 77.0 °F - 73.4 °F 89% 29.87 in 10.0 mi SSE 20.7 mph 25.3 mph N/A   Clear
8:35 AM 77.0 °F - 73.4 °F 89% 29.88 in 10.0 mi South 20.7 mph 26.5 mph N/A   Clear
8:55 AM 77.0 °F - 73.4 °F 89% 29.90 in 10.0 mi South 13.8 mph 20.7 mph N/A   Scattered Clouds
9:15 AM 77.0 °F - 73.4 °F 89% 29.89 in 10.0 mi SSE 16.1 mph - N/A   Mostly Cloudy
9:35 AM 78.8 °F - 73.4 °F 83% 29.89 in 10.0 mi South 15.0 mph - N/A   Mostly Cloudy
9:55 AM 78.8 °F - 73.4 °F 83% 29.88 in 10.0 mi South 12.7 mph 18.4 mph N/A   Overcast
10:15 AM 78.8 °F - 73.4 °F 83% 29.89 in 10.0 mi South 12.7 mph 18.4 mph N/A   Overcast
10:35 AM 78.8 °F - 73.4 °F 83% 29.89 in 10.0 mi SSE 10.4 mph - N/A   Mostly Cloudy
10:55 AM 78.8 °F - 73.4 °F 83% 29.90 in 10.0 mi South 12.7 mph - N/A   Overcast
11:15 AM 77.0 °F - 73.4 °F 89% 29.90 in 10.0 mi South 11.5 mph 18.4 mph N/A   Overcast
11:55 AM 80.6 °F 85.4 °F 73.4 °F 79% 29.90 in 10.0 mi South 13.8 mph 20.7 mph N/A   Mostly Cloudy
12:15 PM 80.6 °F 85.4 °F 73.4 °F 79% 29.90 in 10.0 mi South 12.7 mph 18.4 mph N/A   Mostly Cloudy
12:35 PM 82.4 °F 89.5 °F 75.2 °F 79% 29.90 in 10.0 mi South 11.5 mph 16.1 mph N/A   Mostly Cloudy
12:55 PM 80.6 °F 85.4 °F 73.4 °F 79% 29.91 in 10.0 mi South 11.5 mph - N/A   Overcast
1:15 PM 80.6 °F 86.2 °F 75.2 °F 84% 29.91 in 10.0 mi South 15.0 mph 18.4 mph N/A   Overcast
1:35 PM 82.4 °F 89.5 °F 75.2 °F 79% 29.90 in 10.0 mi South 16.1 mph 26.5 mph N/A   Scattered Clouds
1:55 PM 82.4 °F 88.2 °F 73.4 °F 74% 29.89 in 10.0 mi South 16.1 mph 23.0 mph N/A   Scattered Clouds
2:15 PM 84.2 °F 92.3 °F 75.2 °F 74% 29.89 in 10.0 mi SSE 15.0 mph 24.2 mph N/A   Scattered Clouds
2:35 PM 84.2 °F 90.9 °F 73.4 °F 70% 29.90 in 10.0 mi South 13.8 mph 25.3 mph N/A   Scattered Clouds
2:55 PM 82.4 °F 88.2 °F 73.4 °F 74% 29.89 in 10.0 mi South 13.8 mph 23.0 mph N/A   Mostly Cloudy
3:15 PM 82.4 °F 88.2 °F 73.4 °F 74% 29.89 in 10.0 mi SSE 12.7 mph 18.4 mph N/A   Overcast
3:35 PM 82.4 °F 89.5 °F 75.2 °F 79% 29.88 in 10.0 mi South 13.8 mph 18.4 mph N/A   Mostly Cloudy
3:55 PM 82.4 °F 88.2 °F 73.4 °F 74% 29.88 in 10.0 mi South 18.4 mph - N/A   Mostly Cloudy
4:15 PM 84.2 °F 92.3 °F 75.2 °F 74% 29.88 in 10.0 mi SSE 15.0 mph 20.7 mph N/A   Mostly Cloudy
4:35 PM 82.4 °F 89.5 °F 75.2 °F 79% 29.88 in 10.0 mi SSE 12.7 mph - N/A   Mostly Cloudy
4:55 PM 82.4 °F 88.2 °F 73.4 °F 74% 29.88 in 10.0 mi South 15.0 mph - N/A   Mostly Cloudy
5:15 PM 84.2 °F 90.9 °F 73.4 °F 70% 29.88 in 10.0 mi South 12.7 mph 19.6 mph N/A   Scattered Clouds
5:35 PM 82.4 °F 87.2 °F 71.6 °F 70% 29.88 in 10.0 mi South 16.1 mph - N/A   Mostly Cloudy
5:55 PM 82.4 °F 88.2 °F 73.4 °F 74% 29.87 in 10.0 mi South 12.7 mph - N/A   Scattered Clouds
6:15 PM 84.2 °F 90.9 °F 73.4 °F 70% 29.87 in 10.0 mi SSE 11.5 mph - N/A   Scattered Clouds
6:35 PM 82.4 °F 88.2 °F 73.4 °F 74% 29.87 in 10.0 mi SSE 9.2 mph - N/A   Mostly Cloudy
6:55 PM 82.4 °F 88.2 °F 73.4 °F 74% 29.88 in 10.0 mi SSE 10.4 mph - N/A   Mostly Cloudy
7:15 PM 82.4 °F 88.2 °F 73.4 °F 74% 29.87 in 10.0 mi SSE 9.2 mph - N/A   Mostly Cloudy
7:35 PM 82.4 °F 88.2 °F 73.4 °F 74% 29.87 in 10.0 mi SSE 11.5 mph - N/A   Scattered Clouds
7:55 PM 80.6 °F 85.4 °F 73.4 °F 79% 29.87 in 10.0 mi SSE 10.4 mph - N/A   Clear
8:15 PM 80.6 °F 85.4 °F 73.4 °F 79% 29.87 in 10.0 mi SSE 9.2 mph - N/A   Mostly Cloudy
8:35 PM 80.6 °F 85.4 °F 73.4 °F 79% 29.87 in 10.0 mi SSE 9.2 mph - N/A   Mostly Cloudy
8:55 PM 80.6 °F 85.4 °F 73.4 °F 79% 29.87 in 10.0 mi SSE 9.2 mph - N/A   Mostly Cloudy
9:15 PM 78.8 °F - 73.4 °F 83% 29.87 in 10.0 mi SE 6.9 mph - N/A   Overcast
9:35 PM 78.8 °F - 73.4 °F 83% 29.88 in 10.0 mi SSE 8.1 mph - N/A   Mostly Cloudy
9:55 PM 78.8 °F - 73.4 °F 83% 29.89 in 10.0 mi SSE 5.8 mph - N/A   Scattered Clouds
10:15 PM 77.0 °F - 73.4 °F 89% 29.90 in 10.0 mi SSE 5.8 mph - N/A   Clear
10:35 PM 77.0 °F - 73.4 °F 89% 29.91 in 10.0 mi SE 5.8 mph - N/A   Clear
10:55 PM 77.0 °F - 73.4 °F 89% 29.92 in 10.0 mi SE 4.6 mph - N/A   Clear
11:15 PM 75.2 °F - 73.4 °F 94% 29.92 in 10.0 mi SE 5.8 mph - N/A   Clear
11:35 PM 75.2 °F - 73.4 °F 94% 29.93 in 10.0 mi ESE 5.8 mph - N/A   Clear
11:55 PM 75.2 °F - 73.4 °F 94% 29.94 in 10.0 mi SE 5.8 mph - N/A   Scattered Clouds